Hourly Data Report for September 24, 2017

All times are specified in Local Standard Time (LST). Add 1 hour to adjust for Daylight Saving Time where and when it is observed.

PORT ALBERNI (AUT)
BRITISH COLUMBIA

49°18'59.700" N
124°55'36.600" W
76.20 m
1036B06
71475
WQC

Related Data

No related data is available for this station

Download Data

Hourly Data (September 2017)
Hourly Data Report for September 24, 2017
Temp Definition
°C
Dew Point Temp Definition
°C
Rel Hum Definition
%
Wind Dir Definition
10's deg

Wind Spd Definition
km/h
Visibility Definition
km
Stn Press Definition
kPa
Hmdx Definition


Wind Chill Definition


Weather Definition


TIME
00:00 13.1 11.4 89 8 8   101.16     LegendNANA
01:00 13.5 11.5 88 15 6   101.16     LegendNANA
02:00 12.7 11.2 91 31 5   101.17     LegendNANA
03:00 11.3 10.3 94 31 4   101.19     LegendNANA
04:00 11.0 10.4 96 7 7   101.18     LegendNANA
05:00 9.4 8.8 96 25 9   101.16     LegendNANA
06:00 10.2 9.7 97 1 3   101.19     LegendNANA
07:00 10.5 10.0 97 24 3   101.15     LegendNANA
08:00 12.4 11.0 91 35 4   101.18     LegendNANA
09:00 14.8 11.3 80 32 2   101.18     LegendNANA
10:00 16.2 10.9 71 30 2   101.14     LegendNANA
11:00 18.5 10.9 61 21 4   101.12     LegendNANA
12:00 19.6 11.2 58 16 5   101.10     LegendNANA
13:00 20.9 10.7 52 15 7   101.03     LegendNANA
14:00 21.2 11.3 53 20 5   101.00     LegendNANA
15:00 20.4 12.1 59 15 5   100.97     LegendNANA
16:00 20.1 12.5 62 18 6   100.94     LegendNANA
17:00 19.2 12.5 65 12 7   100.92     LegendNANA
18:00 17.1 12.0 72 10 14   100.93     LegendNANA
19:00 16.1 12.0 76 9 11   100.95     LegendNANA
20:00 15.8 12.1 79 10 10   100.96     LegendNANA
21:00 14.8 12.1 84 11 8   100.96     LegendNANA
22:00 14.7 12.1 84 11 10   100.96     LegendNANA
23:00 14.3 12.3 88 10 11   100.95     LegendNANA

Notes on Data Quality.

Legend

  • E = Estimated
  • M = Missing
  • NA = Not Available
  • ‡ = Partner data that is not subject to review by the National Climate Archives
Date modified: